Regional Weather Roundup
Issued by NWS

Home | Current Version | Previous Version | Text Only | Print | Product List | Glossary On
Versions: 1 2 3 4 5 6 7 8 9 10 11 12 13 14 15 16 17 18 19 20 21 22 23 24 25 26 27 28 29 30 31 32 33 34 35 36 37 38 39 40 41 42 43 44 45 46 47 48 49 50
000
ASUS45 KABQ 030910
RWRNM
NEW MEXICO REGIONAL WEATHER ROUNDUP
NATIONAL WEATHER SERVICE ALBUQUERQUE NM
300 AM MDT TUE AUG 03 2021

NOTE: "FAIR" MEANS FEW OR NO CLOUDS BELOW 12,000 FEET AGL WITH NO
       SIGNIFICANT WEATHER OR OBSTRUCTIONS TO VISION.

      THIS PRODUCT IS RELEASED AS TWO VERSIONS.  ONE VERSION NEAR
      THE TOP OF THE HOUR CONTAINING PRELIMINARY DATA FROM ALBUQUERQUE
      AND OTHER STATIONS.  A FINAL VERSION WITH ADDITIONAL DATA IS
      ISSUED ABOUT 10 MINUTES AFTER THE HOUR.

NMZ201-203-204-210>218-031000-
NORTHWEST PLATEAU/NORTHCENTRAL MOUNTAINS

CITY           SKY/WX    TMP DP  RH WIND       PRES   REMARKS
FARMINGTON     MOCLDY    69  55  60 CALM      30.24S
LOS ALAMOS     FAIR      59  51  74 SW6       30.37F
SANTA FE       FAIR      62  57  83 S5        30.32F
TAOS           FAIR      51  47  86 NE9       30.39S
ANGEL FIRE     CLOUDY    50  49  98 CALM      30.47S FOG

$$
NMZ202-205>209-241-402-403-031000-
WESTCENTRAL MOUNTAINS/SOUTHWEST MOUNTAINS

CITY           SKY/WX    TMP DP  RH WIND       PRES   REMARKS
GALLUP         FAIR      58  55  90 E3        30.34S
GRANTS         FAIR      55  52  89 CALM      30.36F
SILVER CITY    FAIR      59  55  88 N9        30.27S

$$
NMZ407-409-411-412-031000-
SOUTHERN DESERTS

CITY           SKY/WX    TMP DP  RH WIND       PRES   REMARKS
DEMING         FAIR      68  61  78 NE3       30.20F
LAS CRUCES     FAIR      69  60  70 SE7       30.22F
HOLLOMAN AFB   CLOUDY    72  60  65 S13       30.21S
ALAMOGORDO     CLOUDY    70  61  73 CALM      30.20S
T OR C         FAIR      73  56  54 CALM      30.22S

$$
NMZ219>223-031000-
CENTRAL VALLEYS/CENTRAL HIGHLANDS

CITY           SKY/WX    TMP DP  RH WIND       PRES   REMARKS
ALBUQUERQUE    CLOUDY    71  55  56 NE7       30.26S
DOUBLE EAGLE   FAIR      65  57  74 CALM      30.29S
MORIARTY ARPT  CLOUDY    63  60  90 CALM      30.33F
CLINES CORNERS CLOUDY    59  55  87 S6        30.37F
BELEN          FAIR      67  54  62 W5        30.25F
SOCORRO        FAIR      66  59  77 CALM      30.23S

$$
NMZ224>226-239-240-031000-
SOUTHCENTRAL MOUNTAINS

CITY           SKY/WX    TMP DP  RH WIND       PRES   REMARKS
RUIDOSO        MOCLDY    59  57  94 CALM      30.39F

$$
NMZ227>231-031000-
NORTHEAST HIGHLANDS/NORTHEAST PLAINS

CITY           SKY/WX    TMP DP  RH WIND       PRES   REMARKS
LAS VEGAS      FAIR      57  55  93 S7        30.35F
RATON          FAIR      61  48  62 CALM      30.31S
CLAYTON        FAIR      58  50  75 SW9       30.25F

$$
NMZ232>237-031000-
EASTCENTRAL PLAINS

CITY           SKY/WX    TMP DP  RH WIND       PRES   REMARKS
SANTA ROSA     FAIR      65  55  71 SE8       30.23F
TUCUMCARI      FAIR      66  51  58 S8        30.20F
CANNON AFB     FAIR      59  56  90 SE6       30.24F
CLOVIS AIRPORT   N/A    N/A N/A N/A MISG        N/A

$$
NMZ028-029-033-238-031000-
SOUTHEAST PLAINS

CITY           SKY/WX    TMP DP  RH WIND       PRES   REMARKS
ROSWELL        FAIR      68  62  81 S3        30.18F
ARTESIA          N/A     68  68 100 SW3       30.20F
CARLSBAD       FAIR      67  63  87 CALM      30.17F
HOBBS          FAIR      63  57  82 CALM      30.19F


$$



USA.gov is the U.S. government's official web portal to all federal, state and local government web resources and services.